Stündliche Wetter Aalsmeer

Heute, 21 Juni, Montag

Zeit Temperatur Niederschläge Wind Luftdruck Luftfeuchtigkeit
00:00 +14°C° 0 mm 6 m/S 757 mmHg 82%
01:00 +13°C° 0.4 mm 6 m/S 756 mmHg 85%
02:00 +13°C° 0.4 mm 6 m/S 756 mmHg 89%
03:00 +11°C° 0.4 mm 6 m/S 756 mmHg 92%
04:00 +11°C° 1.5 mm 6 m/S 756 mmHg 93%
05:00 +11°C° 1.5 mm 6 m/S 756 mmHg 94%
06:00 +11°C° 1.5 mm 6 m/S 756 mmHg 96%
07:00 +12°C° 1 mm 5 m/S 757 mmHg 96%
08:00 +12°C° 1 mm 5 m/S 757 mmHg 95%
09:00 +13°C° 1 mm 5 m/S 758 mmHg 95%
10:00 +13°C° 0.9 mm 5 m/S 758 mmHg 95%
11:00 +13°C° 0.9 mm 5 m/S 758 mmHg 94%
12:00 +13°C° 0.9 mm 5 m/S 759 mmHg 94%
13:00 +13°C° 0.1 mm 5 m/S 759 mmHg 90%
14:00 +14°C° 0.1 mm 5 m/S 759 mmHg 87%
15:00 +14°C° 0.1 mm 5 m/S 760 mmHg 83%
16:00 +14°C° 0 mm 5 m/S 760 mmHg 81%
17:00 +14°C° 0 mm 5 m/S 760 mmHg 80%
18:00 +14°C° 0 mm 5 m/S 761 mmHg 78%
19:00 +13°C° 0 mm 4 m/S 761 mmHg 80%
20:00 +12°C° 0 mm 4 m/S 762 mmHg 83%
21:00 +12°C° 0 mm 4 m/S 762 mmHg 85%
22:00 +11°C° 0 mm 3 m/S 762 mmHg 87%
23:00 +11°C° 0 mm 3 m/S 762 mmHg 89%

Morgen, 22 Juni, Dienstag

Zeit Temperatur Niederschläge Wind Luftdruck Luftfeuchtigkeit
00:00 +11°C° 0 mm 3 m/S 762 mmHg 91%
01:00 +11°C° 0 mm 3 m/S 762 mmHg 91%
02:00 +11°C° 0 mm 3 m/S 762 mmHg 90%
03:00 +11°C° 0 mm 4 m/S 762 mmHg 90%
04:00 +11°C° 0 mm 4 m/S 763 mmHg 85%
05:00 +12°C° 0 mm 4 m/S 763 mmHg 80%
06:00 +13°C° 0 mm 4 m/S 763 mmHg 75%
07:00 +14°C° 0 mm 5 m/S 763 mmHg 70%
08:00 +15°C° 0 mm 5 m/S 763 mmHg 65%
09:00 +16°C° 0 mm 6 m/S 763 mmHg 60%
10:00 +17°C° 0 mm 6 m/S 764 mmHg 58%
11:00 +17°C° 0 mm 6 m/S 764 mmHg 56%
12:00 +19°C° 0 mm 6 m/S 764 mmHg 54%
13:00 +19°C° 0 mm 6 m/S 764 mmHg 54%
14:00 +19°C° 0 mm 6 m/S 764 mmHg 55%
15:00 +19°C° 0 mm 6 m/S 764 mmHg 56%
16:00 +17°C° 0 mm 6 m/S 764 mmHg 59%
17:00 +16°C° 0 mm 6 m/S 764 mmHg 62%
18:00 +15°C° 0 mm 5 m/S 765 mmHg 66%
19:00 +15°C° 0 mm 5 m/S 765 mmHg 68%
20:00 +14°C° 0 mm 5 m/S 765 mmHg 70%
21:00 +13°C° 0 mm 5 m/S 765 mmHg 73%
22:00 +13°C° 0 mm 4 m/S 765 mmHg 74%
23:00 +13°C° 0 mm 4 m/S 766 mmHg 76%

übermorgen, 23 Juni, Mittwoch

Zeit Temperatur Niederschläge Wind Luftdruck Luftfeuchtigkeit
00:00 +12°C° 0 mm 3 m/S 766 mmHg 78%
01:00 +12°C° 0 mm 3 m/S 766 mmHg 79%
02:00 +12°C° 0 mm 3 m/S 766 mmHg 79%
03:00 +12°C° 0 mm 3 m/S 766 mmHg 79%
04:00 +12°C° 0 mm 3 m/S 766 mmHg 79%
05:00 +13°C° 0 mm 3 m/S 766 mmHg 78%
06:00 +13°C° 0 mm 4 m/S 766 mmHg 77%
07:00 +14°C° 0 mm 4 m/S 766 mmHg 71%
08:00 +15°C° 0 mm 4 m/S 767 mmHg 65%
09:00 +17°C° 0 mm 4 m/S 767 mmHg 59%
10:00 +18°C° 0 mm 4 m/S 767 mmHg 55%
11:00 +19°C° 0 mm 4 m/S 767 mmHg 51%
12:00 +20°C° 0 mm 4 m/S 767 mmHg 47%
13:00 +20°C° 0 mm 4 m/S 767 mmHg 47%
14:00 +20°C° 0 mm 5 m/S 767 mmHg 48%
15:00 +20°C° 0 mm 5 m/S 766 mmHg 49%
16:00 +20°C° 0 mm 5 m/S 766 mmHg 53%
17:00 +19°C° 0 mm 5 m/S 766 mmHg 58%
18:00 +17°C° 0 mm 5 m/S 766 mmHg 63%
19:00 +15°C° 0 mm 4 m/S 767 mmHg 70%
20:00 +14°C° 0 mm 4 m/S 767 mmHg 77%
21:00 +12°C° 0 mm 4 m/S 767 mmHg 84%
22:00 +12°C° 0 mm 3 m/S 767 mmHg 85%
23:00 +12°C° 0 mm 3 m/S 767 mmHg 87%

24 Juni, Donnerstag

Zeit Temperatur Niederschläge Wind Luftdruck Luftfeuchtigkeit
00:00 +11°C° 0 mm 3 m/S 767 mmHg 89%
01:00 +11°C° 0 mm 3 m/S 767 mmHg 89%
02:00 +12°C° 0 mm 2 m/S 767 mmHg 90%
03:00 +10°C° 0 mm 2 m/S 767 mmHg 91%
04:00 +11°C° 0 mm 3 m/S 767 mmHg 85%
05:00 +13°C° 0 mm 3 m/S 767 mmHg 80%
06:00 +14°C° 0 mm 3 m/S 767 mmHg 75%
07:00 +16°C° 0 mm 3 m/S 766 mmHg 67%
08:00 +18°C° 0 mm 3 m/S 766 mmHg 60%
09:00 +19°C° 0 mm 3 m/S 766 mmHg 52%
10:00 +20°C° 0 mm 4 m/S 766 mmHg 50%
11:00 +21°C° 0 mm 4 m/S 766 mmHg 47%
12:00 +22°C° 0 mm 4 m/S 766 mmHg 45%
13:00 +22°C° 0 mm 4 m/S 766 mmHg 46%
14:00 +22°C° 0 mm 4 m/S 766 mmHg 47%
15:00 +22°C° 0 mm 5 m/S 765 mmHg 49%
16:00 +21°C° 0 mm 5 m/S 765 mmHg 54%
17:00 +20°C° 0 mm 5 m/S 765 mmHg 59%
18:00 +19°C° 0 mm 5 m/S 765 mmHg 65%
19:00 +17°C° 0 mm 4 m/S 766 mmHg 71%
20:00 +15°C° 0 mm 4 m/S 766 mmHg 78%
21:00 +13°C° 0 mm 3 m/S 766 mmHg 85%
22:00 +13°C° 0 mm 3 m/S 766 mmHg 87%
23:00 +13°C° 0 mm 2 m/S 766 mmHg 89%

25 Juni, Freitag

Zeit Temperatur Niederschläge Wind Luftdruck Luftfeuchtigkeit
00:00 +13°C° 0 mm 2 m/S 766 mmHg 90%
01:00 +12°C° 0 mm 2 m/S 766 mmHg 91%
02:00 +12°C° 0 mm 2 m/S 766 mmHg 91%
03:00 +12°C° 0 mm 2 m/S 766 mmHg 92%
04:00 +13°C° 0 mm 2 m/S 766 mmHg 87%
05:00 +14°C° 0 mm 2 m/S 766 mmHg 82%
06:00 +16°C° 0 mm 1 m/S 766 mmHg 77%
07:00 +17°C° 0 mm 2 m/S 766 mmHg 70%
08:00 +19°C° 0 mm 2 m/S 766 mmHg 63%
09:00 +20°C° 0 mm 3 m/S 766 mmHg 55%
10:00 +21°C° 0 mm 3 m/S 766 mmHg 53%
11:00 +22°C° 0 mm 3 m/S 766 mmHg 50%
12:00 +24°C° 0 mm 3 m/S 766 mmHg 48%
13:00 +22°C° 0 mm 3 m/S 766 mmHg 48%
14:00 +22°C° 0 mm 4 m/S 766 mmHg 48%
15:00 +22°C° 0 mm 4 m/S 766 mmHg 48%
16:00 +21°C° 0 mm 4 m/S 766 mmHg 52%
17:00 +20°C° 0 mm 3 m/S 766 mmHg 55%
18:00 +20°C° 0 mm 3 m/S 766 mmHg 59%
19:00 +18°C° 0 mm 3 m/S 767 mmHg 66%
20:00 +17°C° 0 mm 2 m/S 767 mmHg 72%
21:00 +15°C° 0 mm 2 m/S 767 mmHg 79%
22:00 +15°C° 0 mm 2 m/S 767 mmHg 81%
23:00 +15°C° 0 mm 2 m/S 767 mmHg 83%

26 Juni, Samstag

Zeit Temperatur Niederschläge Wind Luftdruck Luftfeuchtigkeit
00:00 +14°C° 0 mm 2 m/S 767 mmHg 85%
01:00 +14°C° 0 mm 2 m/S 767 mmHg 86%
02:00 +14°C° 0 mm 1 m/S 767 mmHg 87%
03:00 +14°C° 0 mm 1 m/S 767 mmHg 88%
04:00 +15°C° 0 mm 2 m/S 767 mmHg 84%
05:00 +16°C° 0 mm 2 m/S 768 mmHg 79%
06:00 +18°C° 0 mm 2 m/S 768 mmHg 75%
07:00 +19°C° 0 mm 2 m/S 768 mmHg 70%
08:00 +20°C° 0 mm 2 m/S 768 mmHg 65%
09:00 +23°C° 0 mm 2 m/S 768 mmHg 61%
10:00 +22°C° 0 mm 3 m/S 768 mmHg 59%
11:00 +24°C° 0 mm 3 m/S 768 mmHg 57%
12:00 +23°C° 0 mm 4 m/S 768 mmHg 55%
13:00 +23°C° 0 mm 4 m/S 768 mmHg 56%
14:00 +23°C° 0 mm 4 m/S 768 mmHg 56%
15:00 +23°C° 0 mm 4 m/S 767 mmHg 57%
16:00 +22°C° 0 mm 4 m/S 768 mmHg 61%
17:00 +21°C° 0 mm 4 m/S 768 mmHg 65%
18:00 +20°C° 0 mm 4 m/S 768 mmHg 69%
19:00 +19°C° 0 mm 3 m/S 768 mmHg 76%
20:00 +17°C° 0 mm 3 m/S 768 mmHg 83%
21:00 +16°C° 0 mm 3 m/S 768 mmHg 90%
22:00 +15°C° 0 mm 2 m/S 768 mmHg 91%
23:00 +15°C° 0 mm 2 m/S 768 mmHg 92%
Mehr zeigen

Wir brauchen deine Erlaubnis

Meteoprog und unser Service Anbieter werden persönliche Daten aufbewahren, so wie Cookies, Geräte Bezeichnung oder ähnliche Technologien von deinem Gerät und Prozess, so wie Persönliche Daten Inhalte und Werbungen, genauso wie social Media und den Verkehr zu analysieren.

  • Aufbewahrung und/oder Zugang zu deiner Geräte Informationen.

    Cookies, Geräte Bezeichnung oder andere Informationen, können aufbewahrt oder Zugang zu deinem Gerät erhalten, für den Grund, der oben angegeben wird.

  • Personalisierte Werbung und Inhalte, Messungen, Einblick in das Publikum und Produkt Entwicklung.

    Werbungen und Inhalte können personalisiert werden, basierend auf ein Profil. Mehr Daten können besser personalisierte Werbungen und Inhalte hinzufügen. Werbung und Inhalte können gezeigt und gemessen werden. Einblicke über das Publikum, welche die Werbung gesehen haben und den Inhalt, können abgeleitet werden. So wie Daten können genutzt werden, um es zu verbessern oder die Benutzer Erfahrung zu verbessern das System und die Software.

Wenn du “Ich stimme zu” klickst, erlaubst du uns, die Cookies zu benutzen die Geräte Bezeichnung, den Web oder ähnliche Technologien zu benutzen. Deine Settings, können in deinem Gerät bei deinem Browser geändert werden.

Für den bestimmten Zweck, berechtigten Interessen beruhen darauf, mehr als auf den Inhalt. Du kannst mehr darüber in unseren Privaten und Cookie Politik lesen.